User: anonymous   Login
Location: Unspecified
(0.0000°N, 0.0000°E)
Time: 18:51:38
(UTC+00:00)
Language:

FUSE - Orbit

View from above orbital plane
View from above orbital plane
View from above satellite
View from above satellite

Ground track
Ground track

The orbit data is extracted from the following two-line orbital elements,

1 25791U 99035A   19051.84986058 +.00000222 +00000-0 +12345-4 0  9999
2 25791 024.9835 234.6382 0010453 013.4571 346.6214 14.42774322037348
Epoch (UTC): 20 February 2019 20:23:47
Eccentricity: 0.0010453
inclination: 24.9835°
perigee height: 742 km
apogee height: 757 km
right ascension of ascending node: 234.6382°
argument of perigee: 13.4571°
revolutions per day: 14.42774322
mean anomaly at epoch: 346.6214°
orbit number at epoch: 3734

The dashed part of the orbit path shows where the satellite is in the earth's shadow,  

DLR